Regional Weather Roundup
Issued by NWS Little Rock, AR

Home | Current Version | Previous Version | Text Only | Print | Product List | Glossary On
Versions: 1 2 3 4 5 6 7 8 9 10 11 12 13 14 15 16 17 18 19 20 21 22 23 24 25 26 27 28 29 30 31 32
000
ASUS44 KLZK 290805
RWRLZK

WEATHER ROUNDUP FOR ARKANSAS
NATIONAL WEATHER SERVICE LITTLE ROCK AR
300 AM CDT THU SEP 29 2016

NOTE: "FAIR" INDICATES FEW OR NO CLOUDS BELOW 12,000 FEET WITH NO
SIGNIFICANT WEATHER AND/OR OBSTRUCTIONS TO VISIBILITY.

ARZ001-003-010-029-290900-
NORTHWEST ARKANSAS

CITY           SKY/WX    TMP DP  RH WIND       PRES   REMARKS
FAYETTEVILLE   CLEAR     52  48  86 CALM      30.22R
FORT SMITH     CLEAR     58  47  66 NE7       30.19R
HARRISON       CLEAR     50  46  86 NW3       30.21R
BENTONVILLE    CLEAR     52  43  71 NE5       30.23S
ROGERS         CLEAR     50  46  86 N6        30.23S
SILOAM SPGS    CLEAR     52  39  62 N5        30.24R
HIGHFILL       CLEAR     50  46  86 N7        30.22S
$$

ARZ004-005-016-290900-
NORTH CENTRAL ARKANSAS

CITY           SKY/WX    TMP DP  RH WIND       PRES   REMARKS
BATESVILLE     CLEAR     54  45  71 NW5       30.16S
FLIPPIN        CLEAR     55  45  67 N6        30.17S
MTN HOME       CLEAR     52  46  80 VRB3      30.18S
$$

ARZ040-041-290900-
WEST CENTRAL ARKANSAS

CITY           SKY/WX    TMP DP  RH WIND       PRES   REMARKS
MENA           CLEAR     55  52  88 CALM      30.18R
MOUNT IDA      CLEAR     56  50  80 CALM      30.15R
$$

ARZ009-017-025-026-028-290900-
NORTHEAST ARKANSAS

CITY           SKY/WX    TMP DP  RH WIND       PRES   REMARKS
CORNING          N/A     50  48  93 NW7       30.14S
JONESBORO      CLEAR     55  48  77 NW6       30.14R
NEWPORT        CLEAR     51  47  86 NW7       30.15R
WALNUT RIDGE   PTCLDY    52  45  76 NW7       30.14S
BLYTHEVILLE    PTCLDY    50  47  89 NW5       30.12S
$$

ARZ022-023-033-042-044-290900-
CENTRAL ARKANSAS

CITY           SKY/WX    TMP DP  RH WIND       PRES   REMARKS
LITTLE ROCK    CLEAR     61  47  59 N7        30.15R
N LITTLE ROCK    N/A     57  47  71 NE5       30.13R
SEARCY         CLEAR     56  48  74 N8        30.17R
HOT SPRINGS    CLEAR     63  47  55 NE8       30.15R
RUSSELLVILLE   CLEAR     58  47  66 N5        30.18R
$$

ARZ036-290900-
EAST ARKANSAS

CITY           SKY/WX    TMP DP  RH WIND       PRES   REMARKS
WEST MEMPHIS   CLEAR     55  47  74 N5        30.11R
$$

ARZ050-053-066-070-073-290900-
SOUTHWEST ARKANSAS

CITY           SKY/WX    TMP DP  RH WIND       PRES   REMARKS
ARKADELPHIA    FAIR      61  50  67 N5        30.14R
TEXARKANA      CLEAR     63  52  67 NE7       30.12R
EL DORADO      CLEAR     63  50  62 N6        30.10R
DE QUEEN       CLEAR     57  51  80 CALM      30.13R
$$

ARZ056-057-069-290900-
SOUTHEAST ARKANSAS

CITY           SKY/WX    TMP DP  RH WIND       PRES   REMARKS
PINE BLUFF     CLEAR     60  50  69 N9        30.13R
STUTTGART      CLEAR     57  45  62 N9        30.14R
MONTICELLO     PTCLDY    64  47  53 N8        30.10R

$$






USA.gov is the U.S. government's official web portal to all federal, state and local government web resources and services.